Wind_Speed
8 8 9 9 9 8 8 7 7 7 7 8 8 7 7 6 6 6 6 5 5 4 4 4 6 4 3 4 4 5 5 4 4 3 3 3 3 3 3 3 3 3 3
8 9 9 9 9 8 8 7 7 7 8 8 8 7 7 6 6 6 5 5 4 4 4 4 5 4 3 3 4 4 5 4 4 3 3 3 2 2 3 3 4 4 4
8 9 9 9 8 8 8 8 8 8 7 8 7 8 7 6 6 6 5 5 4 4 4 4 3 3 3 3 4 4 4 5 4 4 3 3 3 3 3 3 3 4 4
8 9 9 8 8 8 8 8 8 7 7 8 7 7 7 6 6 6 6 5 4 4 4 4 3 2 3 4 4 3 4 4 4 4 3 3 3 3 3 3 4 4 4
8 8 8 8 8 8 8 8 8 7 7 7 7 7 7 6 6 6 6 5 5 4 5 5 4 3 3 4 4 4 4 4 3 3 3 2 3 3 3 4 4 4 4
8 8 8 8 8 8 8 8 8 7 7 7 7 7 6 6 6 6 6 5 5 4 4 4 4 3 3 4 4 4 4 4 3 3 3 2 2 2 3 4 4 4 4
7 8 8 8 8 8 8 8 8 7 7 7 7 7 6 7 7 6 6 6 6 5 5 4 4 4 4 4 4 4 4 4 3 3 2 2 1 1 2 3 3 3 3
7 7 7 7 8 7 8 8 7 7 7 7 7 7 7 7 6 6 6 6 6 5 5 5 4 4 4 4 4 4 4 3 3 3 2 1 1 2 2 2 2 3 3
6 5 6 7 7 7 8 8 7 7 6 6 7 6 6 6 6 6 5 5 5 5 5 5 4 4 3 3 3 3 4 3 2 2 1 0 1 2 2 2 3 3 3
6 5 6 7 7 8 7 7 7 6 6 6 6 6 6 5 5 5 5 5 4 5 5 4 4 3 3 3 2 2 2 2 1 1 1 0 1 1 1 2 2 3 3
6 6 6 7 6 6 7 6 6 5 5 6 6 6 6 5 5 5 4 4 4 4 4 4 4 3 3 3 3 2 2 1 1 0 0 1 1 1 2 1 2 3 3
6 7 6 6 6 6 6 6 5 5 5 6 6 6 5 5 4 4 4 3 4 4 4 4 4 3 3 2 2 2 2 2 1 0 0 1 1 2 2 2 2 3 3
5 5 5 6 5 5 5 5 5 5 5 5 5 5 4 4 4 4 3 3 3 3 3 3 3 3 3 2 2 1 1 1 1 1 1 1 2 2 3 3 4 4 4
5 5 5 5 5 5 5 5 4 4 4 5 4 4 4 4 3 3 3 3 2 2 3 2 3 2 2 2 2 1 0 1 1 2 2 2 2 3 3 4 4 4 5
4 4 5 4 5 5 4 4 4 3 4 4 4 3 3 3 3 2 2 2 2 2 2 2 2 1 1 2 2 1 1 1 2 2 3 3 3 4 4 5 5 5 5
4 4 4 4 4 3 3 3 3 3 3 3 3 3 2 2 2 2 1 1 2 2 1 1 1 1 1 1 1 1 1 2 2 3 3 3 4 4 5 6 6 6 5
3 3 3 3 3 3 2 3 3 3 3 3 3 2 2 2 1 1 1 1 1 1 0 0 1 1 2 1 1 2 2 3 3 3 4 5 5 6 6 7 7 7 6
4 3 2 2 2 2 2 2 2 2 2 2 2 2 2 2 1 1 1 1 0 0 1 1 2 2 2 2 2 3 3 4 4 5 5 6 6 7 7 8 8 9 8
4 3 3 2 2 2 2 1 1 2 2 2 2 1 2 2 1 1 0 1 0 0 1 2 2 3 3 3 3 3 4 4 5 6 7 7 7 8 9 9 10 10 10
4 4 3 3 3 3 2 2 2 2 2 2 2 1 2 2 1 1 1 1 1 1 2 3 3 4 4 4 4 5 6 6 7 8 8 9 9 9 10 10 11 11 11
4 3 3 3 2 3 3 2 1 1 1 1 2 2 2 2 2 1 2 3 3 3 3 3 4 5 5 5 6 6 7 8 9 9 10 10 10 10 10 11 12 12 12
4 3 3 2 2 2 2 2 1 0 0 1 2 2 2 3 3 2 3 4 4 3 4 4 5 5 6 7 7 8 9 10 10 10 10 10 11 11 11 11 12 12 13
4 3 2 2 2 2 2 2 2 1 1 1 2 2 3 3 3 3 3 4 4 4 5 5 6 7 7 8 8 9 10 11 11 11 12 12 13 13 14 14 13 13 13
3 3 3 3 3 3 2 2 2 2 2 2 2 2 2 3 4 4 4 5 6 6 6 7 8 9 9 9 10 11 11 12 12 13 13 14 15 15 16 16 16 15 15
4 4 4 4 3 3 4 3 3 3 4 4 4 4 4 4 5 6 6 7 7 7 8 9 9 10 10 11 11 12 12 13 14 15 15 15 16 17 17 17 17 17 16
5 5 4 4 4 4 4 4 4 5 5 5 5 5 5 6 6 7 8 8 9 9 9 10 10 11 12 12 13 13 13 14 15 16 16 16 17 18 18 19 19 18 17
Wind_Direction
120 121 121 124 130 129 129 129 126 121 119 127 130 130 125 119 117 117 119 123 121 120 125 140 155 161 164 173 181 182 184 190 193 200 207 211 207 214 223 230 235 236 233
121 121 123 125 126 127 127 126 126 119 118 124 127 127 124 120 123 123 119 118 118 117 115 126 147 159 167 180 188 191 187 188 189 196 205 214 204 196 218 239 234 232 235
124 124 123 123 124 126 125 125 125 122 117 119 120 120 116 113 118 119 112 106 110 110 108 116 128 148 160 169 179 186 191 195 198 198 198 201 201 209 226 244 239 235 241
127 128 126 125 126 124 124 121 122 119 113 115 116 114 112 110 117 117 104 105 107 101 95 104 105 111 133 137 143 154 174 180 184 187 185 192 210 226 234 243 241 244 250
129 131 129 125 125 126 126 125 123 120 117 118 115 114 114 114 113 114 108 107 106 96 89 95 102 97 111 119 123 134 153 156 169 171 177 194 219 237 241 245 249 251 250
129 134 135 126 125 129 131 130 126 120 118 118 116 112 118 117 112 110 107 106 102 98 93 93 97 101 109 114 117 121 141 157 165 171 189 203 223 236 239 251 252 251 254
132 138 139 136 132 133 135 133 128 124 121 120 118 117 117 109 105 106 102 100 100 101 99 93 95 109 114 107 114 125 136 152 161 172 187 203 230 257 263 260 255 251 258
136 141 140 142 142 137 138 137 131 130 128 124 120 119 115 110 110 107 103 101 98 99 100 91 92 105 100 105 110 116 114 121 136 144 158 185 253 276 275 275 262 264 264
133 140 141 140 138 141 140 134 132 131 135 134 128 122 116 113 112 107 101 103 101 101 101 93 95 101 100 101 115 120 114 111 126 139 150 179 293 301 291 280 272 264 263
132 137 140 140 136 135 135 133 131 131 136 136 132 127 122 116 111 105 102 99 97 101 103 99 98 108 111 105 105 110 109 109 127 141 138 318 325 325 321 284 269 264 260
127 133 138 142 136 139 140 139 139 136 134 133 134 130 125 117 113 112 106 100 102 104 105 98 94 101 104 88 93 94 100 97 87 119 180 344 343 338 323 298 271 277 274
120 123 128 136 134 135 138 141 147 145 138 127 128 128 128 122 120 116 111 102 103 103 103 103 100 92 82 80 81 84 93 89 85 76 298 323 333 323 312 297 280 279 286
114 121 122 126 133 134 139 139 136 140 140 135 126 119 121 131 130 129 120 104 108 108 104 97 90 66 63 63 50 75 86 78 62 17 319 327 320 310 303 295 282 282 288
112 121 126 133 140 139 136 138 136 137 141 140 134 127 122 120 125 135 135 120 115 111 111 98 85 66 62 48 41 42 23 6 346 333 316 317 315 301 295 295 288 282 282
108 122 130 131 133 136 134 140 146 139 144 147 146 140 125 123 118 125 140 140 128 108 117 104 81 65 30 26 32 24 271 308 318 317 314 312 309 305 299 297 298 292 285
100 110 113 123 129 132 138 143 149 148 146 153 154 147 135 122 116 114 120 143 131 107 126 120 25 12 3 353 356 340 313 308 311 324 322 317 315 309 298 293 295 294 292
80 94 107 125 129 137 142 150 149 145 143 149 157 158 156 145 135 116 109 138 148 129 102 261 333 327 314 327 330 331 318 311 316 316 313 313 311 307 301 296 293 290 290
63 68 91 116 131 146 138 143 152 151 157 165 153 157 178 165 151 144 113 147 138 71 341 330 311 312 294 289 303 306 306 305 304 304 306 305 305 303 300 296 292 287 286
50 55 77 92 104 122 130 136 158 159 167 191 190 191 211 196 180 187 169 151 143 331 317 325 326 321 315 304 300 301 304 300 299 301 301 299 298 299 296 295 292 287 285
45 53 70 83 86 91 97 104 116 135 161 183 198 205 225 222 209 204 222 255 294 298 307 315 317 316 318 314 308 305 305 303 302 300 296 294 292 293 294 295 294 290 286
39 42 51 69 60 81 80 88 104 118 152 186 206 215 221 229 233 263 296 293 291 291 302 316 319 313 311 309 302 301 303 305 307 306 299 295 295 294 294 294 295 293 289
37 40 39 41 51 64 64 55 44 67 290 255 241 227 246 253 247 266 301 307 299 301 304 313 318 316 313 310 305 301 301 303 304 304 302 299 296 294 295 295 294 293 290
27 28 23 11 2 358 6 22 14 355 327 304 267 255 256 253 259 274 287 304 309 314 313 309 312 310 310 308 304 303 302 300 301 299 298 298 297 295 292 292 291 292 293
7 6 357 345 334 326 331 342 337 318 316 311 309 308 289 278 278 285 295 299 301 307 308 309 307 305 305 304 304 304 303 301 297 295 295 296 297 297 296 293 288 287 290
329 337 338 334 334 335 332 321 304 307 309 307 306 305 295 291 292 288 291 300 303 305 308 307 308 307 306 306 307 308 306 303 301 298 295 293 294 294 296 296 291 285 286
306 314 322 328 331 331 325 315 298 297 301 304 302 304 302 296 291 293 292 294 298 298 300 303 305 307 306 306 305 304 304 303 300 299 298 297 296 295 293 293 290 286 284
Height
5882 5882 5882 5882 5882 5882 5883 5883 5883 5883 5883 5883 5884 5884 5884 5884 5884 5884 5884 5884 5884 5884 5884 5883 5883 5883 5883 5884 5885 5886 5886 5887 5887 5888 5888 5888 5889 5889 5890 5890 5890 5890 5890
5883 5882 5883 5883 5883 5883 5884 5884 5885 5884 5884 5884 5884 5884 5885 5885 5885 5885 5885 5884 5884 5884 5884 5884 5883 5883 5883 5884 5884 5885 5886 5886 5887 5888 5888 5888 5889 5889 5890 5890 5890 5890 5890
5883 5883 5884 5884 5884 5884 5885 5885 5885 5885 5885 5885 5885 5885 5885 5885 5885 5885 5885 5885 5885 5885 5884 5884 5884 5884 5883 5883 5884 5885 5885 5886 5887 5887 5888 5888 5889 5889 5889 5889 5889 5889 5889
5884 5884 5884 5885 5885 5885 5886 5886 5886 5886 5886 5886 5886 5886 5886 5886 5886 5886 5886 5886 5885 5885 5885 5884 5885 5884 5883 5883 5884 5884 5885 5886 5887 5887 5888 5888 5888 5889 5889 5889 5889 5889 5889
5884 5885 5885 5886 5886 5886 5887 5887 5887 5887 5887 5887 5887 5887 5887 5887 5887 5887 5886 5886 5886 5886 5885 5885 5885 5885 5884 5884 5884 5885 5886 5886 5887 5887 5887 5888 5888 5888 5888 5889 5889 5888 5888
5885 5885 5886 5886 5887 5887 5887 5887 5888 5888 5888 5888 5887 5887 5887 5887 5887 5887 5887 5887 5886 5886 5886 5886 5886 5885 5885 5885 5885 5886 5886 5887 5887 5887 5888 5888 5888 5888 5888 5889 5888 5888 5888
5886 5886 5887 5887 5888 5888 5888 5888 5888 5889 5889 5888 5888 5888 5888 5888 5888 5888 5888 5887 5887 5887 5887 5887 5886 5886 5886 5886 5886 5886 5887 5887 5887 5887 5888 5888 5888 5888 5889 5888 5888 5888 5888
5887 5887 5887 5888 5888 5888 5888 5889 5889 5889 5889 5889 5889 5889 5889 5889 5889 5889 5888 5888 5888 5888 5888 5887 5887 5887 5887 5887 5887 5887 5887 5887 5888 5888 5888 5888 5888 5888 5888 5888 5888 5888 5887
5888 5888 5888 5888 5889 5889 5889 5889 5890 5890 5890 5890 5890 5890 5890 5890 5890 5890 5889 5889 5889 5888 5888 5888 5888 5888 5888 5887 5887 5888 5888 5888 5888 5888 5888 5888 5888 5888 5888 5887 5887 5887 5887
5889 5889 5889 5889 5889 5889 5890 5890 5890 5890 5890 5890 5890 5890 5890 5890 5890 5890 5890 5890 5890 5889 5889 5889 5889 5888 5888 5888 5888 5888 5888 5888 5888 5888 5888 5888 5888 5888 5887 5887 5887 5887 5886
5890 5890 5890 5890 5890 5890 5891 5891 5891 5891 5891 5891 5891 5891 5891 5891 5891 5891 5891 5891 5890 5890 5889 5889 5889 5888 5888 5888 5888 5888 5888 5888 5888 5888 5888 5888 5888 5888 5887 5887 5887 5886 5886
5891 5891 5891 5891 5891 5891 5891 5891 5891 5891 5891 5891 5892 5892 5892 5892 5892 5892 5892 5891 5891 5890 5889 5889 5889 5888 5888 5888 5887 5887 5887 5888 5888 5888 5888 5888 5888 5887 5887 5887 5886 5886 5885
5893 5892 5892 5892 5892 5892 5892 5892 5892 5892 5892 5892 5892 5892 5892 5892 5892 5892 5892 5892 5891 5891 5890 5890 5889 5889 5888 5887 5887 5887 5887 5888 5888 5888 5888 5888 5888 5887 5887 5886 5886 5885 5885
5894 5893 5893 5893 5893 5893 5892 5893 5893 5893 5893 5893 5893 5893 5893 5893 5893 5893 5892 5892 5892 5891 5891 5890 5890 5889 5888 5887 5886 5886 5887 5888 5888 5888 5887 5887 5887 5887 5886 5886 5885 5885 5884
5895 5894 5894 5894 5894 5893 5893 5893 5893 5893 5893 5893 5893 5893 5893 5893 5893 5893 5893 5892 5892 5891 5891 5891 5890 5890 5889 5888 5887 5887 5887 5888 5888 5887 5887 5887 5886 5886 5886 5885 5884 5884 5883
5896 5895 5895 5894 5894 5894 5894 5893 5893 5893 5893 5893 5894 5894 5894 5893 5893 5893 5893 5893 5892 5892 5892 5891 5891 5890 5890 5889 5888 5888 5888 5887 5887 5887 5887 5886 5886 5885 5885 5884 5884 5883 5882
5896 5896 5895 5895 5894 5894 5894 5894 5894 5894 5894 5894 5893 5893 5893 5893 5893 5893 5893 5893 5892 5892 5892 5891 5891 5891 5890 5889 5889 5888 5888 5887 5887 5887 5886 5886 5885 5884 5884 5883 5882 5882 5881
5897 5897 5896 5895 5895 5894 5894 5894 5894 5893 5893 5894 5893 5893 5893 5893 5893 5893 5893 5892 5892 5892 5892 5891 5891 5890 5890 5889 5889 5889 5888 5887 5887 5886 5886 5885 5884 5883 5882 5882 5881 5880 5879
5898 5897 5896 5896 5895 5895 5894 5894 5893 5893 5893 5893 5893 5893 5893 5893 5893 5893 5892 5892 5892 5892 5891 5891 5891 5890 5889 5889 5888 5888 5888 5887 5886 5885 5885 5884 5883 5882 5881 5880 5879 5878 5877
5899 5898 5897 5896 5896 5895 5895 5894 5893 5893 5893 5893 5893 5893 5893 5893 5892 5892 5892 5892 5891 5891 5891 5890 5890 5889 5889 5888 5888 5887 5886 5886 5885 5884 5883 5882 5881 5880 5879 5878 5877 5876 5875
5900 5899 5898 5897 5896 5896 5895 5894 5894 5893 5893 5893 5893 5892 5892 5892 5892 5892 5891 5891 5890 5890 5890 5890 5889 5889 5888 5887 5887 5886 5885 5884 5883 5882 5881 5880 5879 5877 5876 5875 5874 5873 5872
5900 5899 5898 5898 5897 5896 5895 5895 5894 5893 5893 5892 5892 5892 5891 5891 5891 5891 5890 5890 5889 5889 5889 5889 5888 5887 5887 5886 5885 5884 5884 5883 5881 5880 5879 5878 5876 5875 5874 5872 5871 5870 5869
5901 5900 5899 5898 5897 5896 5896 5895 5894 5893 5892 5892 5891 5891 5890 5890 5890 5890 5890 5889 5888 5888 5888 5887 5887 5886 5885 5884 5883 5883 5882 5881 5879 5878 5876 5875 5873 5872 5871 5870 5869 5868 5866
5901 5900 5899 5898 5897 5896 5895 5894 5894 5893 5892 5891 5890 5890 5889 5889 5889 5889 5889 5888 5887 5887 5886 5886 5885 5884 5883 5882 5881 5880 5879 5878 5876 5875 5874 5872 5871 5869 5868 5866 5866 5865 5863
5901 5900 5899 5898 5897 5896 5895 5894 5893 5893 5892 5891 5890 5889 5889 5888 5888 5888 5887 5886 5886 5885 5884 5884 5883 5882 5881 5880 5879 5877 5876 5874 5873 5872 5870 5869 5868 5866 5864 5863 5862 5861 5860
5900 5899 5899 5898 5897 5896 5895 5894 5893 5892 5891 5890 5889 5888 5888 5887 5887 5886 5885 5885 5884 5883 5882 5881 5880 5879 5878 5877 5876 5874 5873 5871 5870 5868 5866 5865 5864 5862 5860 5859 5858 5857 5856